Theta_e
333 337 338 337 331 327 327 328 328 328 330 330 330 334 343 345 332 329 345 347 334 335 342 339 337 338 338 339 336 336 338 338 339 341 342 342 341 341 342 341 343 343 344 345 345 346 347 346 348 349 349 350 351 351 351 351 352 352 351 350 349 343 335 332 333 336 335 333 329 326 323 322 322 322 322 328 333 334 331 329 328 328 329 328 326 324 323
335 336 334 335 331 328 328 328 330 329 329 329 328 337 345 341 337 342 347 342 339 337 336 336 334 332 333 335 334 335 337 339 340 342 342 342 341 340 341 340 341 342 342 344 344 345 346 347 349 350 349 350 351 352 353 352 352 351 351 350 347 342 337 334 334 335 334 333 330 326 324 324 324 323 323 329 334 331 327 326 326 326 325 325 324 324 324
330 333 333 333 330 329 327 326 331 330 328 331 329 331 338 336 335 341 341 340 344 340 336 336 333 331 334 335 334 335 335 337 339 341 341 341 339 338 338 338 340 340 342 344 343 345 345 346 348 349 351 352 351 352 352 352 352 351 350 349 345 341 339 337 334 333 334 334 332 329 327 327 327 324 324 328 330 326 324 325 325 325 324 324 324 324 325
325 330 330 330 330 330 327 325 330 330 329 332 331 334 338 333 335 345 339 335 339 341 339 340 336 335 336 335 334 335 335 336 337 339 341 343 341 341 341 340 342 343 344 345 346 346 346 346 348 350 352 352 352 352 353 352 352 349 347 347 343 340 340 338 335 337 337 336 335 332 327 326 327 326 326 326 325 323 323 324 324 324 323 324 324 326 327
324 331 332 333 332 326 325 330 332 331 333 333 332 338 342 339 346 355 345 339 344 346 342 343 342 340 339 335 334 335 337 338 336 337 340 341 341 341 342 341 343 342 342 342 342 344 346 346 348 349 350 351 351 353 352 351 349 347 346 345 343 341 342 340 339 340 338 336 337 332 325 324 328 329 328 325 324 323 323 323 323 324 324 325 326 328 330
324 332 338 336 329 322 327 338 336 332 335 336 333 336 339 341 348 352 346 345 352 350 344 342 342 339 340 338 335 336 337 336 335 335 335 336 336 336 336 336 337 336 335 336 336 339 345 350 350 350 350 351 352 351 350 349 347 346 345 344 343 343 343 342 341 340 338 337 335 329 324 325 330 332 328 324 324 324 324 324 324 325 326 327 328 330 332
330 339 340 326 322 331 344 345 336 334 336 335 339 340 338 340 343 345 343 340 342 344 340 338 336 335 336 336 333 335 334 333 334 334 333 334 334 333 333 333 334 335 335 335 336 338 344 350 351 351 351 352 352 350 347 344 343 342 341 342 343 343 343 342 340 338 337 337 335 328 324 327 332 332 327 323 324 325 325 325 325 326 328 329 331 333 334
332 338 336 326 328 344 354 343 334 339 341 340 343 340 338 342 342 342 343 341 339 339 333 332 334 333 333 334 333 333 333 332 333 332 333 335 332 331 333 334 335 336 335 336 338 339 342 344 347 351 353 352 352 350 347 343 340 339 339 340 342 343 343 342 339 336 337 338 336 329 324 328 333 330 325 323 323 324 325 325 326 328 329 331 332 333 333
335 335 336 339 338 336 342 342 337 336 339 344 347 338 336 344 343 340 342 344 345 341 334 332 333 331 333 336 334 332 331 332 333 333 333 333 332 332 334 334 336 336 336 337 339 340 340 340 343 349 352 353 353 351 349 345 342 339 339 340 341 342 343 342 338 336 337 338 336 330 326 329 331 328 324 323 324 324 325 326 328 328 329 331 334 334 332
342 342 337 339 333 327 337 346 340 334 333 342 354 348 340 343 340 335 340 344 344 340 335 331 331 333 339 339 334 333 332 331 332 333 333 332 332 334 335 337 338 339 340 341 339 338 338 342 346 349 351 353 353 351 348 346 343 341 340 339 340 341 343 342 339 337 336 337 336 332 329 329 328 325 323 323 324 326 327 328 329 330 331 333 334 333 331
347 347 338 333 328 330 341 344 338 333 329 337 353 348 339 341 337 332 337 340 336 336 333 331 333 338 342 337 333 334 336 333 332 333 334 334 336 338 338 339 340 339 339 338 338 339 343 347 348 348 350 353 352 350 349 347 345 343 341 340 339 340 342 342 339 338 338 338 337 335 333 331 328 325 323 324 325 327 329 330 330 331 333 334 333 331 330
344 343 337 334 331 335 339 337 335 333 330 338 347 338 335 341 337 332 335 336 333 333 331 331 336 340 339 336 335 334 334 336 337 336 337 338 338 339 340 339 338 338 337 336 338 342 346 348 348 347 349 351 350 349 347 346 345 344 343 342 340 339 341 340 339 338 338 338 335 333 334 335 333 329 326 325 326 329 331 333 332 332 333 333 331 330 329
342 338 334 332 334 338 338 334 334 334 335 345 343 335 338 341 335 334 335 334 333 333 332 333 337 337 334 335 336 334 333 335 337 336 337 338 338 338 338 338 337 337 337 339 342 344 346 346 345 346 349 350 349 348 346 345 344 343 342 341 340 340 340 339 338 338 338 337 334 331 332 336 337 335 332 330 331 332 333 333 333 333 333 331 330 329 328
344 343 340 334 335 339 335 333 335 336 340 344 338 336 340 338 334 336 335 334 335 335 333 334 335 334 334 334 335 334 333 333 334 334 335 335 335 335 335 336 336 336 338 340 343 344 344 342 341 344 348 349 348 348 347 346 345 343 340 340 340 340 339 337 336 337 338 337 334 332 336 340 340 338 336 335 335 335 335 334 334 333 331 330 329 328 327
347 351 348 341 340 342 334 334 342 345 344 342 337 335 336 335 335 334 333 333 333 332 333 333 332 333 334 334 334 334 334 333 333 333 335 336 336 336 336 336 337 339 340 343 345 344 341 339 340 344 348 349 349 347 346 346 345 343 341 340 339 339 338 336 336 337 338 338 336 337 340 342 341 339 338 337 338 336 334 334 333 332 331 329 328 327 327
347 349 347 342 341 339 333 336 340 341 339 338 336 334 333 333 334 334 333 335 334 332 332 332 331 331 332 332 333 334 334 334 333 332 334 335 336 338 339 340 342 344 345 347 346 343 339 338 341 345 348 349 348 346 344 343 343 342 341 340 340 339 337 336 337 337 337 337 337 338 340 341 339 338 337 337 337 336 334 333 333 332 331 329 328 327 328
342 342 340 339 336 334 332 333 334 334 334 333 333 333 332 333 334 333 334 335 335 335 335 333 333 334 334 334 335 334 334 335 335 335 335 335 335 336 340 345 348 349 350 348 344 341 339 340 343 347 349 348 345 342 339 339 339 338 338 338 338 337 336 337 338 338 336 335 335 335 335 336 337 338 338 336 336 335 333 333 332 331 329 328 327 327 327
339 337 335 335 334 332 331 331 331 331 331 331 331 332 332 333 335 334 334 334 333 333 334 334 336 337 336 337 337 337 337 337 336 337 337 336 336 336 338 342 346 347 347 346 343 340 340 342 346 347 346 344 341 338 337 337 337 336 337 338 338 337 337 337 338 338 337 337 337 336 334 335 337 337 336 334 334 333 333 332 331 329 327 326 326 326 326
339 339 340 340 335 331 331 331 330 330 329 329 330 330 330 331 333 335 337 337 335 334 332 333 336 336 335 336 335 335 336 335 336 337 337 336 337 336 336 338 340 342 344 344 342 341 341 344 345 343 341 339 337 338 339 339 339 339 339 338 337 337 336 335 334 334 335 336 337 336 335 336 336 336 334 333 333 332 332 331 330 328 326 325 326 326 326
342 342 341 338 331 328 331 331 330 330 330 328 329 328 328 328 329 332 334 334 335 336 335 334 333 332 330 330 330 330 330 329 332 335 335 336 337 337 337 338 338 341 343 344 341 341 342 344 342 338 338 339 339 340 341 339 338 337 336 335 335 334 333 332 331 331 331 332 333 334 335 335 334 334 333 333 332 331 330 329 328 326 326 326 327 327 326
340 338 337 335 331 329 330 330 330 330 329 328 328 328 327 327 327 328 329 328 328 331 334 333 332 331 330 329 327 326 326 326 328 333 336 338 337 337 339 340 341 343 343 342 341 339 341 341 339 338 342 343 340 338 336 334 332 332 331 331 332 332 331 330 328 328 329 331 333 334 334 334 333 333 333 332 331 330 328 327 327 326 327 327 327 326 325
339 340 339 337 336 334 331 328 329 330 329 328 328 327 326 327 326 326 327 326 326 326 327 328 328 330 332 331 329 327 326 326 328 331 336 338 338 339 341 341 343 342 341 340 339 339 340 340 339 339 339 338 335 333 333 332 331 331 331 330 329 331 332 328 325 327 329 331 332 333 334 334 334 333 332 331 330 328 327 327 327 327 327 326 325 325 324
338 338 335 332 333 334 330 326 327 329 328 328 328 326 325 325 325 325 325 325 325 324 323 324 325 326 329 331 332 331 329 328 328 331 337 339 339 340 340 342 342 341 340 341 341 339 339 339 338 336 334 333 333 333 331 330 330 331 331 329 326 327 326 323 324 328 329 330 331 332 332 333 333 332 331 329 328 328 328 328 328 327 326 325 324 324 322
332 333 333 329 329 329 326 323 325 325 326 326 327 326 325 323 323 323 323 323 324 324 323 324 324 324 327 330 333 333 332 332 332 332 335 338 340 340 340 342 342 341 341 342 340 337 337 337 336 334 333 332 332 332 331 330 329 330 330 327 324 324 323 324 327 329 328 328 329 330 331 332 332 331 330 329 328 329 328 327 327 326 325 325 324 323 321
327 328 328 326 324 324 322 322 322 323 323 324 324 324 324 323 323 324 323 324 324 324 323 323 323 323 325 329 333 335 334 334 334 334 335 337 339 340 340 340 341 342 343 342 340 338 338 338 337 336 335 333 332 331 330 329 327 327 328 327 326 325 326 329 330 329 328 329 329 329 331 331 331 330 330 329 329 329 328 327 326 325 325 325 324 323 322
323 323 323 322 321 322 322 322 323 323 324 324 324 324 324 323 324 324 323 323 324 323 323 323 323 323 323 325 331 336 339 338 336 335 336 337 338 339 339 339 339 340 341 341 340 338 338 337 336 335 333 331 330 328 326 327 329 332 332 329 328 329 330 330 330 330 330 330 331 331 331 330 330 330 330 329 328 328 327 326 326 326 326 325 324 323 322
321 321 321 321 321 322 323 324 325 324 324 324 324 324 324 323 323 323 323 323 323 322 322 323 324 324 324 324 326 331 336 339 338 335 335 337 337 338 339 338 337 338 338 338 337 337 336 336 335 333 330 329 328 328 328 331 333 333 329 325 326 329 330 330 331 331 331 331 331 331 331 330 330 330 329 328 328 327 327 327 327 327 326 325 324 323 321
321 321 322 323 323 323 323 324 324 324 324 324 323 323 323 323 322 322 322 323 322 322 321 322 324 324 325 325 324 325 327 332 337 339 337 335 337 339 339 337 336 335 334 334 334 334 333 334 333 332 329 328 329 331 331 330 327 324 321 320 321 324 326 327 329 331 331 331 331 330 329 330 330 329 328 328 328 327 328 328 327 327 326 324 323 322 321
322 322 323 323 323 323 323 323 323 322 322 322 322 322 322 322 322 322 323 323 323 323 322 323 324 324 324 324 325 326 325 326 332 338 339 337 338 340 338 336 334 333 331 331 331 330 331 332 332 330 329 329 331 332 330 327 323 320 320 320 319 320 322 324 325 326 328 329 330 328 327 327 328 328 328 328 328 328 328 327 326 326 324 322 322 321 320
322 322 322 321 322 322 322 321 321 320 320 321 321 320 320 320 320 321 322 322 322 323 323 322 322 323 323 323 323 325 327 328 329 334 338 340 339 339 337 335 334 333 332 331 330 331 333 333 331 330 330 330 331 329 327 324 322 320 320 320 320 320 321 323 324 326 327 328 328 327 327 326 327 328 328 328 328 327 327 326 325 324 322 321 321 320 319
322 321 321 321 320 320 320 319 319 319 319 319 319 319 319 319 319 319 319 319 319 320 321 322 322 322 322 322 321 321 324 327 330 333 337 339 339 338 337 336 335 335 334 332 331 333 333 331 330 329 327 326 325 324 322 322 321 321 322 322 322 322 323 324 326 328 328 328 328 328 327 327 327 328 328 327 327 326 325 324 323 322 321 320 319 319 319
321 320 320 320 319 319 319 319 318 319 318 318 319 319 319 319 319 319 319 319 319 319 319 319 321 320 319 318 319 320 321 324 328 332 336 338 337 336 336 336 336 335 335 334 333 332 331 331 330 327 324 323 321 321 321 322 323 325 326 326 325 325 325 326 327 328 328 328 328 328 327 327 327 327 328 326 326 325 324 323 322 321 320 319 319 319 318
320 319 319 319 319 319 319 319 319 319 318 318 318 319 319 319 320 320 320 320 320 320 320 320 320 321 320 319 320 321 322 324 327 331 334 335 336 335 335 336 337 337 335 334 333 331 330 330 328 326 325 325 322 320 322 326 328 328 328 328 327 327 327 327 327 328 328 327 327 326 326 327 327 327 327 325 325 324 322 321 321 319 319 319 319 318 316
320 319 319 319 319 319 319 319 319 319 318 318 319 319 320 320 320 320 320 321 321 322 323 323 322 322 322 323 324 323 324 326 330 332 333 332 333 334 334 335 337 336 334 332 331 329 328 327 326 326 325 324 322 322 326 329 329 328 328 327 327 328 327 327 327 328 327 326 326 325 326 326 326 326 325 324 324 323 322 320 320 319 318 317 317 316 314
320 320 319 320 320 320 320 319 319 319 319 319 319 319 319 319 319 320 320 321 321 323 324 324 324 323 323 325 325 324 326 329 332 334 333 330 330 331 332 333 334 334 331 330 329 328 327 326 326 327 326 325 325 326 327 327 326 327 327 327 327 327 327 326 326 326 325 326 325 325 326 326 326 325 324 323 323 321 320 320 319 318 318 316 315 315 315
320 319 320 320 319 319 319 319 319 319 319 319 319 319 319 319 320 321 321 322 322 322 323 323 323 323 323 324 324 324 324 327 331 333 333 330 330 331 331 332 333 332 332 331 330 329 328 328 329 329 328 327 327 327 326 325 326 327 326 326 325 325 325 325 325 325 325 325 325 325 325 325 325 324 323 322 321 319 319 318 318 318 317 316 316 316 315
319 319 319 319 319 319 319 319 319 319 319 319 320 320 320 320 321 321 321 321 321 321 321 321 322 322 322 322 323 322 322 325 331 333 333 331 331 331 331 331 331 331 331 331 330 330 330 330 330 330 328 326 326 326 326 326 326 326 325 324 324 324 325 325 325 325 324 324 323 323 324 324 323 322 321 321 320 319 318 318 318 317 317 316 316 315 315
319 319 319 319 319 319 319 319 319 319 319 319 320 320 320 320 320 320 320 320 320 320 320 320 320 320 319 320 320 320 320 324 330 332 332 331 331 331 331 331 331 330 330 329 329 329 329 329 329 327 326 325 326 326 325 324 324 324 324 324 323 323 324 323 322 322 321 320 320 321 321 321 320 319 319 319 319 319 319 318 317 316 316 316 315 315 314
319 319 319 319 319 319 319 319 319 319 319 319 320 319 319 319 319 319 319 319 318 318 318 318 318 317 317 317 318 318 318 322 326 329 329 330 331 331 331 331 330 330 329 328 328 328 328 327 327 325 324 324 324 322 322 322 322 323 323 323 323 322 322 320 319 318 318 318 318 318 318 317 317 317 317 317 317 317 318 317 316 316 315 315 315 314 313
319 319 319 319 319 319 320 320 320 319 319 320 320 319 320 320 319 319 318 318 318 318 319 319 318 317 316 316 317 318 320 323 324 324 326 328 330 331 330 329 329 328 328 327 327 327 327 326 326 325 324 323 321 320 321 321 321 321 321 322 321 320 319 318 317 317 317 317 317 317 316 316 315 315 315 316 316 316 316 316 316 316 315 314 314 313 313
320 320 320 320 320 320 320 320 320 320 320 320 320 320 320 319 319 318 319 319 320 320 321 321 321 321 321 321 321 322 325 327 327 327 328 328 328 328 328 327 327 327 327 327 327 327 327 326 326 324 322 321 321 321 321 321 320 320 320 320 320 319 319 318 317 317 317 316 316 316 316 315 314 313 313 314 315 315 315 315 315 315 314 314 314 313 312
320 319 319 320 320 320 320 320 319 319 320 320 320 320 319 318 318 319 320 320 320 321 322 323 323 323 324 325 325 325 327 328 329 329 328 327 326 326 326 326 326 326 327 326 327 327 326 325 324 322 321 321 321 321 320 319 319 319 319 318 317 317 317 317 316 316 316 316 316 315 315 315 314 313 312 312 313 313 314 313 313 312 312 312 313 312 311
320 319 318 319 319 319 319 319 319 319 320 319 318 318 318 318 319 320 320 320 320 322 322 323 323 323 324 325 325 326 327 328 327 326 325 323 323 324 325 324 325 325 325 325 326 325 324 322 321 320 320 320 320 320 319 318 318 317 317 316 316 315 315 314 314 314 315 315 315 316 315 315 314 313 313 312 312 312 312 312 312 312 312 312 311 311 309
320 319 318 318 319 319 319 319 319 319 319 318 316 317 318 320 320 319 319 320 321 322 322 322 322 322 323 323 324 325 325 324 324 323 322 322 323 323 323 323 323 324 324 324 324 323 322 321 320 320 320 320 319 318 317 316 314 312 312 314 316 316 315 315 314 313 312 312 313 314 314 314 314 314 314 313 313 312 312 312 311 311 311 311 311 309 308
320 318 317 318 319 319 319 319 319 319 319 318 318 318 319 320 320 319 319 320 321 322 322 321 321 322 322 322 323 324 324 323 323 323 323 323 324 324 323 323 323 323 323 323 322 321 321 320 319 319 319 317 314 312 311 311 309 308 308 309 311 313 314 313 312 312 311 310 310 311 312 313 313 314 314 313 313 312 311 310 309 308 308 310 310 308 306
318 318 317 318 319 319 318 318 318 319 319 319 318 319 319 320 319 319 320 320 320 321 322 322 322 322 323 322 322 323 323 322 323 324 324 324 324 324 323 323 323 323 323 322 321 320 320 320 319 318 316 314 310 309 308 309 309 309 309 308 308 309 309 309 308 307 307 307 306 308 309 310 311 312 312 311 310 310 309 308 308 307 307 309 308 307 305
317 317 317 317 317 318 318 318 318 318 319 319 318 318 318 319 319 319 319 320 320 320 322 322 322 322 323 323 322 322 322 322 323 324 324 324 324 323 322 322 322 322 322 322 321 320 320 319 319 318 316 314 312 311 310 309 309 309 310 310 309 308 307 307 306 306 306 305 305 305 307 309 309 309 309 309 309 308 308 308 308 307 307 307 307 305 305
317 317 317 317 317 317 317 317 317 318 318 318 318 318 318 318 319 319 319 319 320 320 321 321 321 322 323 323 322 322 322 322 322 323 322 322 322 322 321 321 320 321 320 320 320 320 320 319 318 317 316 316 315 313 311 310 310 310 310 310 310 309 307 307 306 305 305 305 305 305 306 307 308 308 308 308 308 308 307 307 307 306 306 306 305 305 305
317 317 317 317 317 316 316 316 317 317 317 317 318 317 317 318 318 318 319 319 320 320 320 320 321 321 322 322 321 321 322 322 321 321 321 320 320 320 320 320 320 319 319 319 319 319 319 319 318 317 316 315 315 314 312 311 311 310 310 309 309 308 307 307 306 305 305 305 305 305 305 306 306 306 306 307 307 307 306 306 305 305 305 305 304 304 304
316 316 317 318 317 317 317 316 316 317 317 317 317 317 318 318 318 318 318 318 319 319 319 319 319 320 321 321 320 320 321 320 320 320 320 320 320 320 319 319 319 318 317 317 317 317 318 317 316 315 315 314 314 313 312 311 311 310 309 308 308 309 308 307 306 305 304 305 305 305 305 305 305 305 305 305 306 306 306 305 305 305 304 304 304 304 304
315 315 317 318 319 318 318 317 315 315 315 314 314 315 316 317 318 318 318 318 319 319 319 318 318 319 319 319 319 320 320 320 320 320 320 320 320 320 319 319 318 318 317 316 315 315 314 314 313 313 313 313 312 312 311 311 311 311 310 310 309 309 309 307 305 305 305 304 304 304 304 304 304 304 304 305 305 305 305 305 305 304 304 304 303 303 303
314 314 316 317 318 319 319 317 315 313 313 313 313 312 313 316 318 318 317 316 316 318 318 318 318 318 318 319 319 319 319 320 320 320 319 319 319 319 319 319 319 318 317 317 316 314 314 313 313 312 312 312 311 311 312 312 311 311 311 311 311 310 309 308 307 307 306 305 304 304 303 303 303 303 304 304 304 304 304 304 304 304 304 303 303 303 303
Wind_Speed
14 12 10 9 11 12 11 10 10 11 11 10 9 8 7 9 8 7 9 13 16 14 12 13 14 13 14 16 22 29 32 33 35 37 37 38 37 37 38 38 39 40 41 43 44 46 48 49 49 49 50 51 51 52 53 52 51 50 49 49 47 46 43 37 31 26 23 19 16 12 12 12 13 15 14 14 15 14 13 14 16 16 16 17 18 17 15
11 12 11 9 10 11 12 14 13 11 12 11 9 7 9 12 10 8 12 15 14 13 14 16 16 16 18 22 27 29 30 32 34 34 35 36 36 36 36 35 36 37 39 39 41 43 45 46 47 48 49 50 49 50 50 49 48 48 48 47 45 43 41 34 28 24 22 20 17 12 12 13 14 14 14 15 16 15 14 14 15 16 16 16 15 14 12
9 11 10 7 8 9 12 15 12 7 6 6 3 2 5 7 4 4 13 15 11 9 10 10 10 12 14 16 20 24 26 30 33 32 33 34 34 33 32 32 32 34 36 37 39 40 40 42 45 46 48 47 47 48 49 50 51 51 50 48 43 42 40 33 29 27 25 25 19 11 11 14 13 14 14 15 16 15 14 15 15 15 14 14 13 12 11
5 7 6 7 6 5 5 4 3 3 4 2 2 2 3 4 3 4 7 9 9 7 4 6 7 10 13 14 17 21 22 25 29 30 30 30 29 29 29 29 29 31 32 33 33 34 36 39 42 44 45 45 46 49 51 52 52 50 47 43 39 41 42 35 31 30 30 28 19 12 12 15 14 15 16 16 16 16 15 15 15 15 14 14 13 12 12
4 4 4 8 6 5 2 3 2 3 6 7 6 3 1 2 6 7 5 7 7 2 2 5 7 8 10 12 16 19 18 19 22 22 21 19 18 18 19 20 20 20 20 19 20 23 27 33 38 40 41 43 46 50 51 50 48 46 42 37 36 42 43 34 29 31 32 26 18 14 15 15 15 17 18 18 19 18 16 16 16 16 16 15 14 13 13
3 4 2 6 4 4 4 4 3 5 8 11 10 5 2 3 5 6 3 5 6 8 8 6 5 6 9 13 16 19 18 17 16 15 14 13 12 12 11 9 8 8 7 7 8 11 16 26 32 33 35 40 43 44 45 46 47 45 40 37 38 43 42 34 30 34 32 20 14 13 15 15 17 20 20 20 20 19 18 17 17 18 17 15 14 14 15
3 1 4 5 4 6 5 4 4 6 9 13 12 6 3 5 9 10 8 4 5 12 15 15 14 13 15 18 19 18 14 11 10 10 11 12 11 9 7 5 4 4 5 4 4 6 10 18 24 26 29 34 36 36 36 37 38 38 36 34 36 39 40 36 35 34 26 17 16 15 16 17 21 23 22 22 22 21 20 19 18 18 17 16 15 15 17
3 3 4 3 5 5 5 2 5 6 7 9 9 7 6 6 6 9 10 7 5 9 16 23 26 24 20 17 14 13 10 7 5 6 9 10 8 6 5 5 4 5 6 6 5 5 6 9 16 23 29 32 34 35 35 36 37 37 35 35 36 39 40 40 39 32 21 19 18 18 19 21 24 24 23 23 23 22 21 19 18 18 18 17 17 16 17
3 5 3 1 0 4 6 3 1 1 1 4 7 5 3 6 6 4 9 9 6 8 13 21 28 27 20 11 7 7 9 9 7 6 7 9 8 7 8 7 5 5 7 8 7 5 6 8 13 20 25 30 34 37 38 40 41 40 39 38 39 44 46 47 45 35 22 20 21 22 23 26 27 26 25 24 23 22 21 20 19 18 18 18 17 17 17
2 5 4 3 3 1 3 5 6 3 3 8 9 6 2 6 10 5 6 12 10 10 13 18 22 19 12 5 3 6 11 11 10 11 10 10 9 9 8 6 4 5 6 5 3 3 5 7 10 14 19 26 32 35 37 39 41 40 40 41 43 47 51 52 51 40 26 23 23 25 27 28 28 27 26 23 22 22 22 22 21 20 18 17 17 18 19
2 5 4 2 3 2 4 7 8 5 8 11 7 7 2 6 13 9 4 10 11 12 14 16 15 11 7 2 1 9 15 13 10 11 12 12 11 9 6 4 4 3 2 2 3 4 4 4 6 10 16 23 29 32 33 35 36 36 38 42 45 48 52 53 48 38 29 25 25 27 29 29 28 28 25 23 22 23 23 24 23 21 19 18 19 20 19
3 5 3 2 3 0 3 6 10 10 2 9 8 5 1 8 13 7 8 8 7 11 14 13 9 6 6 7 4 13 19 17 14 13 12 11 9 7 5 2 2 4 6 6 5 3 2 3 6 10 15 21 26 27 28 31 33 33 34 38 42 46 49 48 43 37 32 27 25 28 29 29 29 27 26 25 25 24 25 26 25 22 20 18 18 19 20
4 5 3 0 1 1 5 9 15 18 7 8 7 3 5 8 8 15 23 18 15 19 21 17 11 9 11 13 13 16 18 17 16 12 9 7 5 2 1 3 5 7 7 5 3 2 1 2 6 10 15 20 23 24 26 28 31 30 30 35 40 42 42 41 39 38 33 27 26 27 28 29 30 29 27 27 27 26 27 27 26 24 20 16 17 19 21
3 4 4 2 0 1 9 14 16 13 5 4 3 4 4 0 8 23 29 24 23 26 26 21 16 15 16 16 16 16 15 15 15 12 8 6 3 1 3 5 7 7 7 5 3 3 3 4 6 10 16 20 21 22 24 25 25 26 28 33 37 37 36 36 37 37 33 29 29 29 29 32 34 32 29 28 28 28 29 29 29 28 22 19 20 22 22
3 3 4 3 2 6 14 14 9 8 5 5 8 9 7 8 17 26 27 24 23 24 22 20 18 17 16 15 15 15 14 13 13 10 8 6 3 1 3 6 8 8 7 5 5 5 4 5 7 11 15 19 20 20 20 18 19 23 26 29 31 31 31 31 34 35 33 29 29 30 32 35 36 34 31 30 29 30 31 31 30 27 22 20 22 23 21
3 3 2 2 5 7 13 13 6 6 8 6 9 11 10 11 21 28 26 23 21 19 17 17 16 15 14 13 13 13 12 11 10 8 7 6 5 2 3 5 6 6 5 5 5 6 6 6 9 12 14 15 17 17 15 14 16 20 21 22 23 24 26 30 33 34 31 27 28 29 31 33 35 34 34 32 30 31 33 32 28 24 23 22 22 21 18
4 5 2 2 4 6 17 26 19 15 17 15 14 18 17 16 21 25 26 24 22 19 19 18 16 13 12 12 12 12 10 9 8 7 7 7 6 5 4 4 5 6 5 6 7 8 8 9 11 13 14 16 16 14 11 11 13 15 16 19 21 23 27 28 28 27 26 25 27 28 30 31 33 34 35 32 30 32 33 30 24 22 22 21 19 18 17
4 6 3 3 6 12 22 29 27 23 23 21 22 26 24 21 21 21 20 18 16 16 16 17 16 14 12 13 14 13 11 11 10 9 8 7 6 6 6 6 6 7 8 9 10 10 11 12 14 16 17 17 14 11 10 12 13 13 15 17 20 23 25 22 19 21 25 28 29 29 30 31 31 32 32 30 30 30 27 23 20 20 19 18 18 17 17
4 4 4 3 8 15 21 25 25 24 24 24 25 27 25 23 23 23 21 18 17 16 14 13 12 12 12 14 14 13 14 14 12 11 10 8 6 6 8 9 9 10 11 12 13 14 14 15 17 18 18 15 12 12 14 17 18 18 15 13 13 16 18 18 19 21 23 26 27 27 27 26 26 27 28 28 26 23 19 18 19 19 18 17 16 16 16
3 4 3 3 15 20 22 23 22 19 19 19 20 22 22 22 22 22 23 23 22 19 14 12 13 13 14 15 15 15 16 15 14 13 11 9 9 9 9 10 11 12 13 15 16 16 16 17 19 19 16 15 15 16 17 16 16 14 12 11 10 11 14 16 17 19 19 21 22 23 23 23 24 25 24 22 19 17 16 17 17 16 15 14 14 14 16
5 3 4 5 14 18 18 20 17 15 16 17 16 16 17 20 21 20 19 20 21 19 15 13 14 15 15 15 15 16 16 15 14 12 10 9 10 10 10 11 13 13 15 17 18 17 17 19 21 19 16 17 19 17 14 12 9 7 6 5 5 8 11 12 12 13 16 18 18 19 21 23 23 22 20 18 17 15 14 14 14 13 13 13 14 16 17
4 2 5 6 7 6 9 15 15 9 8 12 15 16 16 17 18 17 15 14 15 16 16 14 14 14 15 14 14 14 14 14 13 10 8 9 9 10 11 12 14 16 17 18 18 18 18 19 21 21 20 20 19 15 12 10 5 2 3 5 5 7 10 10 9 12 14 15 16 17 19 20 20 19 18 16 15 13 12 12 13 13 13 14 16 17 17
3 3 7 10 11 8 8 13 15 11 7 8 11 13 15 14 13 12 12 11 11 13 15 15 15 15 14 14 14 12 11 10 9 7 6 7 9 11 13 14 15 16 18 18 19 20 20 19 21 22 20 16 13 12 11 7 2 5 6 6 8 11 13 11 10 11 13 13 13 14 16 16 16 16 15 14 13 12 13 14 15 15 15 16 16 16 16
5 7 12 13 13 12 12 15 16 13 11 12 12 9 11 13 13 11 10 10 11 13 14 14 15 16 14 12 13 13 11 9 7 5 5 6 9 11 14 15 16 17 19 21 23 23 22 20 21 21 20 18 15 12 9 8 10 11 10 9 11 14 14 12 11 10 10 10 11 12 13 14 14 14 15 15 15 16 17 16 16 16 16 16 16 16 16
13 14 16 15 16 17 17 17 17 15 13 13 14 12 11 12 13 12 11 12 12 14 16 17 17 18 17 13 11 14 14 10 8 7 7 8 9 12 14 16 18 19 21 24 25 23 21 21 21 20 21 21 18 15 13 13 13 14 13 12 12 13 12 12 10 10 11 12 12 13 14 15 16 17 19 19 19 19 18 17 16 16 16 16 16 16 16
20 22 22 22 21 18 16 16 18 18 15 13 14 13 12 11 11 11 13 14 14 15 18 20 19 19 19 18 12 10 13 12 9 8 9 10 10 12 14 16 18 20 23 24 24 22 21 20 18 18 18 16 13 10 8 8 11 14 13 11 12 13 14 13 12 12 12 12 14 15 16 17 19 20 20 19 19 19 18 18 17 16 16 15 16 16 15
20 21 20 20 19 18 20 20 19 18 16 14 13 12 11 9 9 9 11 14 14 14 16 18 19 18 17 18 16 11 9 12 12 12 11 11 12 12 13 14 17 19 21 22 22 22 21 20 18 18 16 12 8 6 11 14 15 14 12 11 13 15 16 15 14 13 12 12 14 16 17 19 20 20 20 19 18 18 19 18 17 15 15 15 16 16 14
25 23 22 20 18 19 22 21 18 17 17 16 14 13 11 11 10 11 14 16 16 15 15 16 18 19 18 18 17 16 13 11 13 16 15 13 13 14 13 14 17 17 17 18 19 19 20 21 20 18 15 11 8 12 16 15 14 12 10 11 13 14 16 16 14 13 13 14 15 16 17 18 19 19 18 18 17 18 19 18 16 14 14 14 15 15 13
28 26 25 24 21 18 18 17 16 17 17 15 14 14 14 14 14 14 15 16 17 16 16 16 16 18 19 19 18 18 17 15 12 16 19 17 15 15 16 16 17 17 17 18 20 20 21 22 21 18 14 11 12 15 15 12 10 8 8 10 11 12 14 15 14 14 15 16 16 17 17 18 19 19 19 18 18 18 18 16 14 13 13 14 15 15 13
22 21 21 20 18 15 15 15 16 16 15 13 12 13 13 14 15 15 16 17 17 17 17 18 18 18 18 19 19 20 20 18 15 14 20 21 18 17 18 19 19 20 22 23 23 23 23 21 19 16 15 16 15 13 12 10 9 8 9 9 10 10 12 13 14 15 16 17 17 17 18 19 20 21 21 20 18 17 15 13 12 12 12 13 14 13 12
17 15 15 15 14 14 14 14 13 12 12 12 11 12 12 13 16 18 18 18 19 19 19 20 19 20 20 20 20 21 21 20 18 16 17 21 20 19 20 20 20 23 26 27 28 28 26 23 20 20 20 18 15 14 13 11 9 10 10 9 9 9 10 12 14 16 16 16 16 17 18 19 20 20 21 20 18 16 14 14 13 11 11 12 13 12 10
16 15 14 14 13 12 13 12 11 11 12 12 11 12 13 14 16 17 18 18 19 20 21 22 22 22 23 23 21 20 21 21 20 18 15 18 20 20 20 21 22 24 27 29 29 28 27 26 24 22 18 15 13 12 12 12 11 11 11 10 10 10 11 12 14 15 15 15 16 16 17 18 19 20 21 19 16 15 14 14 12 11 10 12 12 11 10
17 17 16 15 13 12 12 12 12 11 12 12 12 12 12 13 13 14 16 17 18 18 19 19 20 21 22 22 21 20 20 20 19 17 14 15 17 18 19 20 22 23 25 25 25 24 24 24 21 17 13 11 10 11 14 14 14 13 12 12 12 12 12 12 13 14 15 15 15 16 16 17 19 20 18 15 13 13 14 13 11 10 10 11 11 11 10
17 14 12 12 12 11 10 10 10 11 11 11 11 11 13 14 14 15 16 17 16 15 13 14 15 17 18 20 20 19 19 20 20 18 14 12 14 16 17 19 21 23 25 27 26 24 23 22 19 15 15 14 14 15 16 16 15 14 14 13 13 13 13 13 14 15 15 15 14 14 15 17 18 17 15 13 13 13 14 13 11 9 9 10 11 11 10
10 9 8 8 8 8 8 8 9 10 11 11 12 13 14 15 15 15 17 17 16 14 13 13 14 16 18 20 21 19 18 19 21 21 17 13 14 16 17 19 22 25 26 26 24 24 23 20 18 19 18 17 16 17 17 15 14 14 13 13 13 13 13 13 14 14 14 14 14 14 16 17 17 15 13 13 14 14 14 14 11 9 9 9 10 10 11
7 6 6 6 7 8 8 9 10 10 11 12 13 13 13 13 13 13 15 15 16 17 18 17 17 17 18 21 23 22 20 20 21 23 21 16 14 16 18 19 21 23 24 23 22 21 20 18 16 17 18 18 16 15 14 13 12 12 12 12 12 12 11 11 12 12 12 12 13 14 16 17 17 14 13 14 15 14 14 13 12 10 9 9 9 10 11
10 10 9 9 10 11 11 11 11 12 11 11 11 12 13 13 13 14 16 17 18 19 21 21 21 22 22 23 25 26 24 22 21 24 22 15 12 14 17 18 19 20 20 20 19 17 17 17 18 17 16 15 13 12 11 10 10 11 12 12 11 10 9 10 11 11 11 12 13 14 15 15 14 12 11 13 13 13 12 12 11 10 9 8 9 11 12
12 12 11 11 11 11 11 11 11 12 12 13 14 14 15 16 16 17 19 21 22 23 24 25 26 26 26 26 27 28 26 22 20 21 20 15 13 14 16 17 17 16 16 17 16 15 17 18 17 15 13 13 12 11 10 10 12 13 12 11 9 8 8 9 9 9 9 10 10 10 10 10 10 9 8 10 11 11 12 12 12 11 10 10 11 12 13
12 11 12 12 12 11 11 11 12 12 12 14 15 17 17 17 17 19 20 22 23 23 24 24 25 25 24 24 25 25 24 20 16 16 17 18 18 16 16 16 15 13 13 13 13 14 15 15 14 13 12 12 10 10 11 12 12 12 11 10 9 7 6 6 5 5 5 5 6 5 5 6 6 6 7 7 8 10 12 13 13 12 12 13 13 13 13
15 13 12 12 13 13 12 12 13 13 12 12 14 16 16 16 17 18 19 20 19 19 19 20 20 20 21 21 21 21 19 16 13 13 15 19 20 19 18 17 15 13 11 11 12 13 13 13 13 13 12 10 10 11 12 11 10 10 10 10 8 5 4 4 4 4 4 5 5 5 5 4 4 6 7 8 9 10 12 13 13 13 14 15 14 14 13
17 15 13 12 12 13 13 14 15 15 14 12 13 13 14 15 17 18 18 17 16 16 17 19 20 20 20 19 19 16 14 14 15 14 15 18 20 19 17 16 14 12 11 11 12 14 14 14 13 12 9 8 9 10 10 9 8 9 10 10 8 6 5 5 6 6 6 7 7 7 7 6 6 6 6 7 9 11 11 12 12 13 15 16 15 14 14
18 16 14 14 13 13 14 14 14 14 14 13 12 12 13 14 15 15 15 15 15 17 17 17 17 17 17 17 15 13 14 15 16 15 15 15 16 14 13 12 12 11 11 12 13 13 12 11 10 9 7 8 9 9 7 6 7 9 9 9 8 7 7 7 6 7 8 9 10 10 10 10 9 8 7 8 8 10 10 11 11 12 14 16 16 15 15
18 18 17 16 15 14 13 13 12 12 12 13 12 12 12 12 12 13 14 14 16 16 15 13 11 10 10 10 10 12 13 14 13 12 11 10 10 9 7 7 9 10 10 11 11 10 9 8 7 7 7 7 7 6 6 6 7 9 10 10 9 9 8 7 6 6 6 9 11 13 14 14 14 12 11 10 9 10 11 12 13 13 14 16 16 15 14
18 18 18 17 16 15 13 13 12 12 13 13 12 11 10 10 10 12 14 14 13 13 12 10 7 5 4 3 3 5 6 7 8 9 8 8 9 7 3 3 6 8 9 9 9 8 7 7 7 8 8 7 6 6 6 6 6 6 9 11 13 13 12 11 10 8 8 8 10 13 16 18 19 18 17 15 15 15 15 15 15 14 15 16 16 15 13
18 18 17 16 16 15 15 15 14 14 14 13 11 10 9 10 10 11 12 11 11 11 11 9 7 5 3 1 1 2 3 4 5 5 5 5 5 4 3 3 5 7 8 9 8 7 7 7 8 8 8 6 5 4 4 4 4 4 5 8 10 13 13 13 12 11 12 12 12 14 15 17 18 19 20 20 18 17 16 15 13 11 12 15 15 13 12
15 15 15 15 15 15 16 16 15 14 13 13 12 10 9 9 9 9 9 9 10 10 9 8 7 6 4 2 2 3 3 2 2 4 5 5 4 3 1 2 4 7 8 9 8 8 8 8 8 8 7 6 5 4 3 2 3 3 3 3 4 6 8 9 9 10 11 13 14 15 16 15 15 16 18 18 17 16 16 15 12 9 9 12 14 12 10
13 13 13 14 14 14 15 16 15 14 13 14 13 13 11 9 7 7 8 9 9 9 9 8 7 7 6 4 3 2 2 1 1 2 4 4 4 2 1 2 5 8 9 9 8 9 9 8 8 9 8 7 6 5 4 2 3 4 5 5 4 4 5 7 7 8 11 14 15 14 13 12 11 12 15 17 16 16 15 15 13 10 10 12 14 13 12
11 11 11 11 12 13 14 15 15 14 13 13 14 15 14 12 9 8 9 9 9 8 8 7 7 6 6 5 5 3 2 1 1 2 3 5 5 4 3 3 6 8 10 10 10 11 11 10 9 10 10 9 9 8 6 5 5 7 9 9 9 8 7 8 10 11 11 12 13 11 9 8 7 8 12 14 14 14 13 12 10 9 11 13 14 14 14
11 11 10 9 10 12 13 13 14 13 13 13 13 14 15 14 12 10 10 11 10 8 8 8 7 5 5 5 5 5 4 2 3 4 5 5 5 4 3 5 7 8 9 10 11 11 11 11 10 10 10 10 10 9 8 8 8 9 10 11 11 11 10 10 11 12 11 10 11 10 9 8 8 8 10 12 13 13 12 10 8 8 10 12 12 13 13
10 11 11 9 8 8 10 11 12 13 13 14 14 14 14 15 14 12 12 11 10 9 9 10 8 5 5 6 6 5 5 3 2 3 5 6 6 5 4 4 6 6 7 8 9 10 10 11 12 11 11 11 10 10 11 11 11 10 11 12 14 14 13 12 11 11 11 11 10 10 10 12 13 13 12 12 13 14 14 14 12 11 11 11 12 12 13
13 13 12 10 9 8 7 8 10 11 12 14 14 13 13 13 12 12 12 12 12 11 12 12 10 7 7 7 7 6 6 5 3 2 4 6 8 8 7 7 7 7 7 7 7 7 8 9 10 10 11 11 12 12 12 12 12 12 12 14 15 16 15 13 11 11 11 11 11 10 10 12 13 14 13 12 12 14 14 14 13 13 12 11 11 12 12
15 13 10 9 8 6 4 4 8 11 13 14 14 14 14 13 11 10 11 13 13 12 12 12 11 10 8 8 8 7 7 6 4 3 3 5 7 9 10 10 10 10 10 10 10 10 10 10 10 11 12 13 14 14 14 14 14 15 15 15 15 15 15 14 14 14 13 12 12 12 11 11 12 12 11 10 11 14 15 15 14 13 12 12 12 12 12
Wind_Direction
215 213 215 205 185 190 195 190 199 212 205 175 162 181 175 151 160 212 217 182 176 191 199 197 194 183 175 174 168 165 166 171 179 183 187 192 197 202 208 211 213 215 217 220 223 224 225 223 221 220 218 218 217 218 220 220 217 216 217 217 216 213 207 202 200 202 207 203 191 187 197 208 219 219 217 220 224 229 238 246 253 259 262 265 268 272 275
216 211 211 194 177 190 197 197 206 216 212 196 184 187 175 170 189 196 176 181 192 194 194 201 199 187 176 170 163 162 166 173 179 183 186 191 196 201 207 212 217 220 222 224 225 226 227 225 223 222 220 218 217 217 218 216 213 213 214 215 215 211 203 196 191 195 205 205 198 200 208 213 219 220 221 223 225 233 242 247 254 258 258 259 260 266 276
208 205 199 171 162 181 190 198 206 204 207 212 199 183 168 171 212 186 163 178 208 215 197 191 184 168 159 159 162 166 169 172 175 181 187 191 196 200 205 212 218 222 225 227 227 228 229 230 228 225 221 218 217 217 217 216 216 215 215 215 214 209 204 197 191 191 196 201 207 221 216 212 220 222 222 226 230 238 245 249 256 258 255 254 257 266 280
202 207 165 129 128 131 144 193 214 136 130 130 82 81 135 147 126 93 133 177 218 237 199 144 139 151 153 157 164 168 171 173 176 181 187 193 199 203 208 215 220 226 229 231 234 235 237 237 233 226 222 220 219 220 221 219 216 213 210 212 214 212 210 205 196 192 192 199 218 242 221 211 223 227 225 230 233 238 242 246 252 254 253 255 261 269 278
228 251 135 113 101 93 67 291 264 117 113 113 101 77 57 133 131 121 144 206 218 218 121 130 141 159 160 156 155 155 157 163 169 175 179 184 191 197 205 213 219 226 233 239 247 249 249 246 238 230 227 228 228 227 222 215 209 205 205 210 215 215 210 202 196 195 194 202 228 238 215 212 226 229 232 235 234 237 241 243 249 252 254 258 264 272 279
214 267 108 95 109 159 208 248 197 127 117 113 105 97 96 101 126 136 162 214 176 124 109 118 134 144 138 133 135 135 133 138 147 158 164 165 168 172 178 190 202 215 230 249 260 260 259 253 243 235 233 234 234 227 215 209 207 204 204 208 210 210 205 199 197 196 196 212 243 228 210 218 228 231 237 239 237 240 243 245 251 254 256 262 268 276 280
165 233 77 97 176 210 230 225 152 115 109 111 105 97 90 86 102 104 78 57 134 129 123 124 121 119 121 122 125 126 122 125 140 157 168 169 167 164 161 174 206 227 235 242 252 259 259 254 247 239 232 230 226 215 206 204 201 196 196 200 203 204 202 198 194 193 202 238 256 228 214 222 229 234 241 241 240 243 243 246 252 256 259 263 268 274 278
136 93 79 149 211 263 306 3 100 89 82 89 82 52 8 11 63 94 93 83 83 100 116 126 125 123 122 122 126 130 116 95 115 172 191 182 166 154 162 182 209 224 225 219 216 235 252 256 253 244 235 229 224 217 211 205 197 193 196 200 202 204 203 197 191 194 217 249 246 227 222 225 231 237 239 238 239 241 242 245 251 255 259 261 265 272 277
125 114 102 161 254 332 334 352 72 126 149 144 120 88 358 330 347 65 116 117 99 91 109 124 126 123 115 97 84 111 112 93 89 124 166 171 165 170 182 192 210 218 216 211 207 230 258 262 258 249 241 236 229 222 216 208 200 197 201 205 208 209 208 203 200 203 225 246 237 227 224 225 231 236 234 235 238 238 240 244 248 255 261 263 267 271 273
89 100 77 41 56 45 280 282 294 316 133 149 132 98 16 323 337 342 138 137 135 132 131 135 133 120 97 65 30 89 108 108 98 104 131 157 173 185 188 195 203 191 193 202 218 276 285 269 258 253 249 242 231 221 216 211 204 203 209 214 214 212 211 210 209 211 226 240 234 227 223 224 230 233 232 236 240 240 242 246 249 257 263 263 263 263 265
61 97 96 110 133 160 250 282 313 7 118 136 103 58 21 309 327 324 182 150 141 143 145 145 136 110 95 184 241 78 92 102 109 125 146 162 172 176 172 175 183 181 214 297 306 302 289 256 243 244 246 242 230 220 217 216 214 215 218 218 215 214 215 214 212 217 230 235 230 226 224 226 231 234 237 241 243 244 246 248 251 256 257 256 255 257 265
57 93 113 163 148 95 310 312 325 330 83 112 77 59 244 299 324 8 94 108 102 109 115 112 102 99 137 170 135 86 93 104 116 133 149 154 155 154 147 162 275 300 302 308 312 295 266 237 232 235 238 236 230 223 219 218 219 221 222 219 216 215 215 214 216 225 233 234 231 229 227 228 233 238 243 246 244 244 247 248 249 248 246 249 254 262 272
59 84 100 115 143 15 336 334 327 321 338 74 77 151 217 295 345 71 84 82 81 86 89 88 86 101 116 119 109 96 96 101 105 111 121 121 121 113 37 296 292 290 284 288 294 271 235 229 230 229 230 229 226 224 221 218 220 223 224 221 216 214 216 221 225 229 232 234 233 230 228 231 235 241 247 248 246 245 245 244 240 236 238 248 256 264 274
67 101 101 20 209 326 334 332 336 344 18 101 131 179 188 280 72 81 80 80 82 82 83 88 95 101 98 95 94 88 85 88 88 85 86 87 76 355 292 277 275 272 260 243 222 202 192 204 214 217 223 224 223 224 225 227 230 227 220 217 216 218 225 229 227 226 232 240 239 235 236 237 239 243 246 246 245 245 242 238 234 235 242 251 256 263 273
80 83 71 66 212 303 337 341 345 16 50 166 162 132 122 98 84 79 75 75 77 78 80 82 83 85 83 79 78 76 73 71 67 65 69 67 56 353 276 267 261 257 245 216 196 192 194 203 203 203 214 222 222 221 221 223 226 223 218 218 222 225 228 227 224 228 238 245 242 240 243 243 242 245 247 245 244 243 238 233 234 240 250 257 260 266 271
79 83 81 125 219 295 6 38 55 38 57 127 138 110 96 83 81 80 75 72 70 70 73 71 65 63 63 63 65 68 67 62 56 54 51 42 35 12 291 261 240 230 224 211 200 196 198 205 200 197 206 218 219 213 204 203 213 219 221 223 224 224 224 224 227 235 241 242 240 243 248 249 249 251 252 247 242 238 233 229 233 248 260 263 263 264 266
101 127 173 253 276 337 44 63 66 58 67 86 93 86 81 75 78 82 80 74 70 67 67 66 62 58 54 53 53 55 59 61 54 47 39 27 14 355 314 261 223 213 226 243 233 210 201 198 192 190 197 205 207 199 191 202 215 216 217 219 220 221 223 228 236 242 241 240 241 245 249 252 252 252 251 245 236 230 229 231 242 258 263 260 258 259 266
123 96 47 357 6 23 48 66 72 68 65 66 71 75 74 68 69 77 82 82 75 63 54 51 54 57 57 56 55 52 51 49 42 36 30 18 359 335 307 277 247 234 238 242 233 217 202 188 181 183 187 190 191 188 193 208 211 208 211 215 217 222 226 232 242 244 240 241 244 244 246 249 248 245 243 238 230 225 228 238 254 261 257 254 258 264 271
133 82 354 3 59 47 46 60 69 69 66 64 66 68 67 66 68 69 71 73 68 59 48 35 35 42 41 42 45 42 38 34 27 18 9 355 332 307 293 284 271 259 248 232 219 210 197 181 173 173 175 175 180 185 189 196 200 202 205 206 210 225 231 229 230 233 236 240 243 242 242 241 234 228 225 224 224 228 239 252 256 256 256 259 264 270 275
94 143 215 117 84 71 62 62 60 58 66 71 68 65 62 60 63 65 64 60 56 56 55 37 23 22 20 20 24 22 18 17 14 6 355 338 320 301 286 277 269 259 240 218 206 198 187 173 165 163 167 178 185 179 176 182 186 183 181 183 195 215 223 222 224 229 234 238 238 236 230 220 213 212 214 219 230 247 259 258 254 255 260 264 269 276 282
77 115 193 123 84 69 69 76 69 55 63 72 72 70 63 55 53 55 58 56 48 44 45 31 13 6 2 3 7 6 4 5 4 356 340 322 308 291 273 260 250 237 218 203 194 187 179 170 164 163 172 183 181 172 167 172 166 145 151 188 207 208 211 214 214 217 223 229 230 228 223 218 217 219 224 234 246 253 252 248 249 256 263 268 276 283 289
133 181 210 168 118 87 85 95 94 81 66 64 59 55 53 52 48 39 39 47 42 33 31 21 360 347 343 343 347 348 348 351 351 343 324 303 286 268 253 240 226 211 200 192 185 179 177 175 173 172 172 169 166 161 156 154 154 193 242 255 247 222 222 227 220 213 215 219 222 225 227 228 231 233 235 238 240 239 242 250 258 264 269 276 281 284 289
172 170 152 136 122 125 117 99 101 111 112 89 72 54 45 51 55 41 33 32 18 6 8 9 3 354 339 325 321 322 323 325 327 322 302 280 266 251 238 227 215 203 193 185 177 171 169 171 173 174 172 166 163 162 153 142 188 244 239 245 239 230 232 236 228 219 218 220 224 229 232 235 237 237 237 236 237 245 257 265 267 267 271 277 280 283 288
81 98 123 120 105 104 101 89 92 99 98 96 97 78 51 53 60 55 43 33 18 10 11 15 19 13 353 320 299 294 293 286 279 276 263 250 244 235 226 217 208 200 188 178 173 170 170 176 184 189 194 201 207 209 217 242 247 234 233 244 240 231 232 233 228 228 233 238 242 241 238 238 241 244 247 249 253 258 263 263 261 263 268 273 277 282 288
104 102 111 110 100 97 92 83 80 79 77 79 82 74 60 56 56 52 45 37 30 27 23 19 19 15 5 345 302 279 275 267 251 242 237 231 228 227 222 212 205 200 190 181 180 186 192 199 205 212 218 226 235 247 259 257 239 225 228 238 235 233 235 236 235 240 246 249 250 247 243 242 244 247 250 252 253 255 257 257 257 260 265 270 275 281 286
112 111 103 95 92 92 87 78 70 65 66 71 69 62 54 47 43 38 33 27 23 22 20 15 12 11 7 4 348 298 267 254 245 240 237 233 230 229 225 219 212 206 199 196 200 210 215 216 220 227 232 242 255 259 240 207 197 202 212 222 231 240 244 242 241 243 243 242 243 244 245 245 244 245 245 246 247 250 252 253 255 258 263 268 274 279 279
110 116 106 90 79 73 74 74 68 61 60 59 55 51 43 33 27 18 13 12 10 9 10 10 11 11 7 5 5 347 293 263 252 245 240 241 242 238 231 224 219 215 214 217 221 224 227 232 233 227 227 241 253 212 176 171 179 193 205 216 227 237 242 243 244 242 238 237 240 244 246 244 242 241 241 242 242 243 244 247 251 255 261 267 272 273 270
91 96 96 90 80 73 74 74 69 62 57 52 47 41 29 18 11 6 4 4 359 353 353 359 5 8 7 5 5 1 343 307 268 250 245 247 244 235 222 214 213 215 218 221 223 228 233 235 229 224 230 243 226 184 174 177 188 200 214 222 224 229 236 241 243 243 243 245 247 250 253 250 245 242 242 242 240 238 237 239 243 248 256 264 268 266 263
84 84 87 85 82 81 81 74 65 57 52 47 43 37 29 21 15 9 4 1 356 350 347 347 348 351 357 2 5 3 355 339 298 262 252 250 244 232 219 209 206 212 219 223 228 234 233 227 225 228 229 217 191 181 181 188 196 206 220 227 230 232 236 241 246 250 251 253 254 255 255 253 251 250 248 246 241 235 231 231 236 246 259 266 266 264 264
82 83 82 77 74 77 74 63 53 47 44 41 37 34 30 25 18 9 0 354 349 345 342 338 334 335 341 349 356 355 350 344 327 287 259 247 238 230 223 216 213 217 221 223 224 224 221 220 222 217 198 184 185 193 197 198 204 214 220 226 234 237 238 244 250 252 253 255 255 254 251 248 248 250 249 245 239 234 232 237 245 254 263 268 267 267 272
82 79 73 63 58 60 58 50 42 36 31 27 22 19 17 11 4 359 354 349 344 339 334 328 324 323 326 331 339 342 339 338 335 312 269 244 234 232 233 233 231 226 220 219 221 222 219 214 205 192 185 187 195 200 201 208 223 228 224 227 238 244 247 250 251 253 254 253 249 247 247 246 246 246 243 239 239 243 247 249 249 250 258 266 268 268 269
80 69 57 46 38 36 33 27 20 15 11 7 4 3 359 352 349 348 345 343 340 335 329 324 320 318 318 320 325 330 331 329 326 313 281 249 239 241 244 244 240 232 226 223 221 217 209 198 186 180 182 189 194 201 214 227 231 225 223 232 243 247 248 249 249 251 253 252 248 247 247 247 246 245 243 244 249 254 254 250 246 248 257 264 264 262 261
58 52 43 33 26 22 17 11 4 358 351 346 343 338 331 327 330 335 336 336 335 332 329 326 321 315 314 317 317 319 322 320 311 300 284 262 250 247 242 235 230 225 218 208 199 192 186 178 171 173 189 208 222 230 229 222 217 218 227 237 243 245 248 250 250 250 254 256 254 250 248 247 246 247 249 251 252 251 248 246 247 253 258 257 253 253 257
51 48 37 26 21 16 8 358 348 340 334 330 327 324 320 316 316 320 324 325 326 328 329 325 314 306 308 315 317 317 319 313 296 281 274 270 263 256 243 230 220 213 204 193 187 188 189 186 188 207 228 236 234 228 219 214 217 226 233 238 242 247 251 253 253 254 257 257 253 248 247 247 245 245 246 247 244 243 244 245 248 256 257 249 242 245 253
51 50 40 30 22 11 358 347 337 329 323 320 319 321 322 318 314 316 318 315 312 312 313 312 306 299 300 309 316 320 320 310 289 270 261 262 263 258 248 233 221 213 206 202 202 206 210 215 225 234 232 221 215 217 221 224 228 231 235 242 247 252 256 259 258 258 256 251 247 247 246 244 242 242 243 244 242 240 240 241 244 251 252 246 244 250 256
17 7 357 347 339 334 332 331 326 318 314 315 317 317 316 313 315 320 320 314 307 302 300 301 304 302 297 302 308 311 311 306 288 268 257 256 257 252 245 236 226 219 214 212 214 218 221 222 222 216 208 205 209 218 224 226 230 236 246 256 261 262 259 254 251 250 246 242 243 247 247 248 248 244 238 237 239 240 238 237 239 240 239 242 254 264 265
1 353 344 333 327 325 322 321 322 320 317 314 314 313 311 310 312 315 316 313 310 306 303 303 305 303 299 299 302 303 305 304 286 263 251 247 245 242 236 228 222 218 215 214 214 214 208 200 195 196 204 210 211 211 214 225 241 254 262 267 269 263 251 242 242 247 250 250 252 253 253 257 260 254 240 237 244 248 242 234 231 232 235 245 258 266 268
1 359 352 342 334 329 322 319 319 318 315 312 312 314 314 313 310 309 309 307 306 305 304 303 301 299 297 296 296 297 300 298 279 257 245 235 227 226 222 216 214 217 219 216 209 200 196 197 201 208 216 216 211 214 229 249 263 267 268 268 264 255 248 247 247 249 251 252 252 250 250 256 265 264 250 243 248 249 241 230 227 235 249 260 264 266 270
3 360 353 346 342 338 333 327 323 319 319 319 319 318 317 315 312 309 307 305 304 302 301 298 295 293 291 289 289 293 298 293 275 255 244 232 220 210 206 207 209 212 214 208 195 187 191 200 204 205 205 209 218 233 248 258 263 264 262 260 255 251 250 250 244 241 246 247 242 242 253 265 270 266 256 246 241 238 232 229 233 245 258 265 267 269 273
2 355 349 345 344 344 343 338 331 327 325 324 321 319 319 319 317 314 312 310 308 306 304 301 297 293 289 286 286 290 288 274 254 244 239 229 214 199 189 188 190 189 191 190 185 184 191 200 203 205 211 223 233 240 244 247 249 249 246 242 238 233 234 239 238 245 255 253 246 252 271 284 280 270 263 255 244 234 231 234 242 254 264 267 268 270 274
3 359 353 344 340 339 337 333 329 327 327 326 322 320 320 320 320 320 320 318 316 315 315 313 308 302 298 295 291 281 260 237 228 227 225 218 208 196 184 178 175 174 176 181 185 190 198 207 213 220 230 236 231 228 227 229 233 234 232 225 214 209 225 244 253 262 267 266 264 269 277 281 279 276 273 266 257 251 251 253 257 265 270 271 269 271 274
6 5 1 353 346 341 337 332 328 327 328 328 325 322 320 322 326 329 331 329 325 321 321 320 316 311 307 302 288 259 227 214 212 209 204 205 210 208 197 184 178 177 181 188 195 202 209 220 230 236 234 224 217 216 220 221 217 214 210 204 197 200 215 230 244 256 263 263 264 272 279 280 277 274 271 266 260 258 260 263 265 270 273 269 264 264 267
7 6 6 3 357 349 343 340 336 333 332 333 331 326 325 330 338 342 342 339 336 331 326 323 321 323 321 308 278 242 220 211 205 194 185 196 216 224 212 195 192 194 197 201 208 214 221 230 236 232 219 211 215 225 234 230 219 213 214 215 213 212 217 228 238 248 253 252 253 261 269 273 274 272 267 261 257 255 256 260 264 268 269 265 259 256 257
8 6 8 7 2 359 357 354 349 346 345 345 345 342 338 336 338 340 342 346 347 343 337 331 327 328 333 323 270 234 213 199 189 178 173 187 205 214 209 197 204 209 211 214 221 229 232 230 224 216 213 216 228 233 231 231 233 232 232 231 230 230 234 241 247 255 265 267 262 259 260 262 265 268 267 263 259 255 252 251 253 258 259 256 251 247 247
8 6 9 10 9 10 11 7 0 355 353 352 351 349 342 335 334 340 348 354 355 350 348 347 343 334 334 27 133 181 189 187 191 197 208 229 247 255 248 212 207 212 219 226 231 233 228 217 213 213 215 214 209 202 201 212 230 239 240 241 243 246 250 257 264 274 282 286 282 274 266 260 259 260 261 258 252 246 243 243 246 248 245 242 240 240 240
6 3 7 12 14 16 19 17 12 7 2 358 355 347 336 327 328 337 347 352 354 353 353 353 350 343 345 37 115 159 186 202 216 224 238 266 289 297 268 222 218 218 222 229 235 233 224 215 212 215 214 201 189 189 196 212 228 246 268 276 268 264 270 280 291 299 305 307 302 288 273 263 256 253 252 249 245 243 244 247 251 249 234 228 230 232 231
359 358 3 11 17 21 24 24 22 20 17 13 9 5 358 348 339 339 340 341 345 350 354 357 1 1 2 16 48 80 96 75 59 233 245 263 277 273 248 227 222 223 228 237 241 235 230 226 221 219 216 210 212 227 244 251 263 285 297 295 285 282 290 298 303 305 312 321 321 304 277 262 255 250 247 245 246 249 251 255 259 256 234 221 221 223 222
339 344 355 9 19 24 28 29 28 25 23 20 17 15 13 9 3 359 358 355 353 355 358 0 4 5 1 2 12 24 29 26 318 280 276 271 269 269 256 225 220 228 238 242 239 234 232 233 232 229 228 230 237 248 256 262 276 287 290 290 290 291 290 291 293 294 302 320 331 320 287 260 253 255 255 253 253 255 256 259 260 247 225 216 217 219 220
327 329 340 359 16 23 29 34 32 27 25 23 20 18 17 14 11 12 13 11 12 15 13 8 6 5 0 1 6 4 351 325 288 284 286 277 270 275 262 228 226 237 246 246 243 240 235 232 230 231 233 237 244 254 262 268 275 281 282 280 281 283 282 282 285 286 289 304 323 323 303 280 269 268 266 264 263 261 258 251 239 225 220 222 225 226 226
340 331 332 340 354 8 21 28 27 24 22 19 15 14 16 16 14 12 10 7 6 7 6 4 3 360 352 352 358 2 1 354 318 286 282 274 268 272 270 246 237 246 255 257 255 251 246 241 240 241 243 248 255 262 267 270 274 273 266 261 264 270 276 276 274 274 279 285 292 298 301 295 282 267 258 259 262 260 254 248 243 239 240 240 239 237 237
7 358 350 343 336 338 356 18 23 18 12 7 4 4 6 9 10 11 9 5 2 358 356 354 352 346 339 338 343 348 351 353 351 319 287 274 268 270 273 267 256 252 258 265 265 261 259 257 256 256 259 263 266 268 270 274 275 272 266 264 267 271 272 268 261 262 271 276 272 274 289 299 287 269 256 253 253 249 245 244 244 244 246 247 247 248 248
11 13 15 6 348 335 340 7 11 4 358 356 357 357 356 355 358 4 7 5 2 359 355 353 353 352 342 332 331 336 337 336 333 321 292 280 278 278 277 272 264 257 258 261 262 262 263 265 264 263 264 265 265 266 268 271 272 272 272 274 276 275 272 268 266 269 273 277 277 279 290 298 289 272 255 244 240 239 238 240 243 247 251 251 251 253 253